Retour au catalogue

FENGYUN 1C DEB

ActifPO
NORAD 31295·DEBRIS·🇨🇳 China

Lancé May 10, 1999 depuis Taiyuan Satellite Launch Center

Loading…

Prochains Passages (prochaines 24 heures)

TLE

FraisSource: Space-Track

Époque: Sep 13, 2026, 22:36 UTC

1 31295U 99025BPD 26256.94219196  .00000105  00000-0  99995-4 0  9998
2 31295  98.3380  61.0026 0077417 199.0395 160.7873 13.96915802993456

Suivez FENGYUN 1C DEB en temps réel avec AllMySat

Download on the App Store